TimeEST,TemperatureF,Dew PointF,Humidity,Sea Level PressureIn,VisibilityMPH,Wind Direction,Wind SpeedMPH,Gust SpeedMPH,PrecipitationIn,Events,Conditions,WindDirDegrees,DateUTC
12:54 AM,30.9,21.0,67,29.82,10.0,NNW,11.5,-,N/A,,Overcast,330,2012-11-08 05:54:00
1:54 AM,30.9,21.0,67,29.81,10.0,NNW,10.4,-,N/A,,Overcast,330,2012-11-08 06:54:00
2:54 AM,30.9,21.0,67,29.80,10.0,NNW,6.9,-,N/A,,Overcast,330,2012-11-08 07:54:00
3:54 AM,32.0,19.0,59,29.79,10.0,North,8.1,-,N/A,,Overcast,350,2012-11-08 08:54:00
4:54 AM,32.0,19.0,59,29.79,10.0,North,9.2,16.1,N/A,,Overcast,360,2012-11-08 09:54:00
5:54 AM,30.9,19.9,64,29.79,10.0,NNW,6.9,-,N/A,,Mostly Cloudy,330,2012-11-08 10:54:00
6:54 AM,30.9,21.0,67,29.79,10.0,NW,8.1,-,N/A,,Clear,320,2012-11-08 11:54:00
7:54 AM,32.0,23.0,69,29.79,10.0,NW,6.9,-,N/A,,Overcast,320,2012-11-08 12:54:00
8:54 AM,33.1,24.1,70,29.78,10.0,NW,11.5,17.3,N/A,,Overcast,310,2012-11-08 13:54:00
9:54 AM,34.0,24.1,67,29.78,10.0,NW,10.4,-,N/A,,Overcast,310,2012-11-08 14:54:00
10:54 AM,33.1,24.1,70,29.79,10.0,NW,12.7,21.9,N/A,,Overcast,320,2012-11-08 15:54:00
11:54 AM,35.1,25.0,67,29.78,10.0,NNW,16.1,28.8,N/A,,Overcast,330,2012-11-08 16:54:00
12:54 PM,34.0,25.0,70,29.77,10.0,NNW,16.1,28.8,N/A,,Overcast,330,2012-11-08 17:54:00
1:54 PM,35.1,26.1,70,29.78,10.0,NW,15.0,23.0,N/A,,Overcast,320,2012-11-08 18:54:00
2:22 PM,33.8,26.6,75,29.76,10.0,NNW,18.4,32.2,N/A,,Overcast,340,2012-11-08 19:22:00
2:54 PM,33.1,26.1,75,29.80,10.0,NW,15.0,24.2,N/A,,Overcast,320,2012-11-08 19:54:00
3:54 PM,33.1,27.0,78,29.81,6.0,NNW,6.9,-,0.00,Snow,Light Snow,330,2012-11-08 20:54:00
4:54 PM,32.0,27.0,82,29.83,9.0,NW,13.8,23.0,0.00,,Overcast,320,2012-11-08 21:54:00
5:54 PM,33.1,27.0,78,29.86,10.0,NW,10.4,18.4,N/A,,Overcast,310,2012-11-08 22:54:00
6:54 PM,33.1,27.0,78,29.87,9.0,NW,8.1,24.2,N/A,,Overcast,320,2012-11-08 23:54:00
7:54 PM,33.1,27.0,78,29.88,9.0,NNW,12.7,26.5,N/A,,Overcast,340,2012-11-09 00:54:00
8:54 PM,33.1,28.0,82,29.88,9.0,NNW,11.5,23.0,N/A,,Overcast,330,2012-11-09 01:54:00
9:54 PM,34.0,27.0,75,29.88,10.0,NNW,10.4,21.9,N/A,,Overcast,340,2012-11-09 02:54:00
10:54 PM,34.0,26.1,73,29.88,10.0,North,5.8,23.0,N/A,,Overcast,360,2012-11-09 03:54:00
11:54 PM,34.0,26.1,73,29.88,10.0,North,12.7,21.9,N/A,,Overcast,350,2012-11-09 04:54:00